Wind_Speed
14 13 12 11 9 9 9 10 11 12 14 16 18 20 21 22 22 24 25 26 27 29 30 32 34 35 37 40 42 44 47 49 52 53 54 55 55 55 54 53 51 49 48 46 45 43 41 40 38 36 35 33 30 29 27 25 24 22 20 19 17 15 14 13 12 12 12 13 13 14 15 17 18 18 19 20 21 23 24 26 28 29 31 33 34 35 37 39
7 7 7 8 10 12 14 16 18 20 23 24 26 26 27 27 28 29 30 31 32 33 34 36 38 41 44 47 51 54 56 58 59 59 59 58 57 56 55 54 52 50 48 46 44 43 41 39 37 36 34 32 30 28 26 25 24 21 20 18 16 14 13 13 13 12 12 13 14 16 17 19 19 20 21 22 23 24 25 27 29 31 32 34 35 37 38 39
7 9 11 14 17 19 22 25 27 29 30 31 32 33 33 33 34 34 35 36 38 39 41 43 46 49 52 56 59 61 62 62 62 61 59 59 58 56 55 53 51 49 47 45 43 42 40 38 36 35 33 31 29 27 25 24 22 20 19 17 15 14 13 13 13 14 15 16 18 19 20 21 21 22 23 24 25 26 27 28 30 31 33 34 35 37 38 40
13 16 19 22 25 28 30 32 34 36 37 38 39 39 39 40 40 41 42 44 46 49 51 52 55 57 60 62 64 64 64 63 62 61 59 59 58 56 54 52 50 48 46 44 42 41 39 37 35 33 31 29 27 25 24 23 21 19 18 16 15 15 14 15 16 17 18 19 19 20 21 22 23 24 24 26 26 27 28 30 31 33 34 35 36 38 39 40
21 24 27 30 33 35 38 40 42 43 44 45 46 46 46 47 48 49 51 53 55 57 59 61 62 63 64 65 65 65 64 63 61 60 59 57 57 55 53 51 48 46 44 42 40 39 37 35 33 31 29 27 25 24 23 22 20 18 17 17 16 16 17 18 18 18 19 19 20 21 23 24 25 26 27 28 29 30 31 32 33 35 36 37 38 39 40 41
29 32 34 37 40 43 45 48 49 50 51 51 52 52 53 54 55 57 58 60 61 63 65 66 66 65 65 65 64 64 64 62 59 59 57 56 55 54 52 49 47 45 42 40 39 37 35 32 30 28 27 25 24 22 22 21 19 18 18 19 19 20 20 20 19 19 19 20 21 22 24 25 27 28 29 30 31 32 33 34 35 36 37 38 39 40 41 42
35 38 41 44 47 50 52 54 55 55 56 56 57 58 59 59 61 62 63 65 66 66 68 68 67 65 64 64 62 62 62 60 58 57 55 54 53 52 50 48 45 43 41 39 37 35 32 30 28 26 25 24 22 22 21 20 19 19 20 21 22 22 22 21 21 21 21 22 23 25 26 28 29 31 32 33 34 34 35 36 37 38 39 39 40 41 41 42
42 45 48 51 54 56 57 58 58 59 59 60 61 61 62 63 64 65 67 67 67 67 68 68 66 64 63 63 61 60 60 58 56 55 53 52 51 50 48 45 43 41 39 37 35 32 30 28 26 24 24 23 21 20 20 19 20 21 22 22 22 23 23 23 23 24 25 26 27 28 29 30 31 33 34 35 35 36 36 37 39 40 41 42 42 42 42 43
48 51 53 56 58 59 60 60 61 62 62 63 63 64 65 66 67 67 67 67 68 67 67 66 65 62 62 62 58 57 57 55 54 53 51 49 48 47 46 43 41 39 37 35 33 30 28 26 25 23 22 21 19 19 20 20 21 21 21 21 22 22 23 25 26 27 29 30 31 31 31 32 33 35 36 37 37 38 39 40 41 42 43 44 44 44 44 44
52 55 57 59 60 61 62 62 63 63 64 65 65 66 67 67 68 67 67 66 66 66 65 64 63 61 60 59 56 54 54 53 51 50 49 46 45 44 42 40 38 36 35 32 30 28 26 25 23 21 20 20 19 19 20 20 20 20 20 21 22 23 25 26 28 30 31 32 32 32 33 34 35 36 38 39 40 41 42 42 43 44 45 45 46 46 46 46
56 58 60 61 62 63 63 64 64 64 65 65 66 66 67 67 67 66 65 64 63 64 63 61 60 58 58 56 53 52 52 51 49 47 46 44 42 41 40 37 35 34 32 30 28 26 25 24 21 19 19 19 19 19 20 19 19 20 21 22 23 24 26 27 29 30 32 32 33 34 35 36 37 39 41 42 43 44 44 44 44 45 46 47 47 48 48 48
58 60 61 62 63 64 64 64 64 64 65 65 65 66 66 65 64 63 62 61 61 61 60 59 57 55 55 53 51 50 49 47 46 44 43 41 40 39 37 35 32 31 30 27 25 24 23 21 20 19 18 18 19 19 18 18 19 20 21 23 24 25 27 28 30 31 32 34 36 37 38 40 41 43 44 45 45 45 45 46 46 46 47 48 49 49 50 50
60 61 62 63 63 64 64 64 64 64 64 64 64 64 63 63 62 61 60 59 58 58 57 56 54 52 52 50 48 47 45 44 43 41 40 39 37 36 34 32 30 28 27 25 23 22 20 20 19 18 16 18 18 18 18 19 20 21 23 24 26 27 28 30 31 33 35 37 39 40 42 43 45 46 47 47 47 47 47 47 47 48 49 49 51 52 53 53
60 61 62 63 63 63 63 63 63 63 63 63 62 62 61 60 59 59 58 57 56 55 54 53 52 49 48 48 45 43 42 40 39 38 37 36 34 33 32 29 27 26 25 23 21 19 18 18 18 16 16 17 17 17 19 20 21 23 25 26 28 29 30 32 34 36 38 40 40 42 43 45 46 47 48 48 49 48 49 49 50 50 51 52 53 54 55 55
61 61 62 62 62 61 61 62 62 62 61 61 60 59 59 58 57 56 55 54 53 53 51 50 49 47 45 45 42 40 38 37 36 34 33 32 30 29 28 26 24 22 22 20 18 17 16 16 15 14 15 15 16 17 19 20 22 25 27 28 30 31 33 35 37 39 40 41 42 43 44 46 47 48 49 50 51 51 51 52 52 53 54 55 56 56 56 56
60 61 60 60 60 60 60 59 59 59 59 58 58 57 57 56 55 54 52 51 50 49 48 47 45 44 44 42 39 37 36 34 33 31 30 29 26 25 24 22 21 20 18 17 16 15 14 13 13 13 14 15 16 18 20 23 25 26 28 30 31 33 35 36 38 39 40 42 43 44 45 47 48 50 51 52 53 53 54 54 55 56 57 57 57 57 57 57
58 59 58 58 58 58 58 57 57 57 56 56 56 55 55 54 53 51 50 48 47 46 45 44 42 41 42 39 37 35 33 31 30 28 27 25 23 21 20 18 17 16 16 15 14 13 13 13 13 13 14 15 17 20 22 24 26 28 29 30 32 34 35 37 38 40 41 43 44 45 47 49 50 52 54 55 55 55 56 56 57 57 57 57 57 57 58 57
56 56 56 56 56 56 55 55 54 54 54 54 54 54 53 52 50 49 47 45 44 43 41 40 40 40 38 35 34 32 30 28 27 25 24 22 20 18 15 14 12 12 11 11 11 12 13 14 15 14 15 17 20 22 24 26 28 29 30 31 32 33 35 37 39 41 43 44 46 48 49 51 53 54 56 57 58 57 57 57 58 58 59 58 58 58 58 58
54 54 54 54 54 54 53 53 52 51 51 51 51 51 51 50 48 46 44 42 41 39 37 36 36 38 35 32 30 28 27 26 23 22 20 18 16 14 13 12 10 10 9 9 11 11 12 14 17 17 18 20 22 24 25 28 29 30 30 31 32 34 36 38 40 42 44 46 48 50 52 54 56 57 59 60 60 59 59 59 59 59 60 60 59 59 59 58
52 52 52 52 52 51 51 51 50 49 48 48 48 48 48 47 46 45 42 40 38 36 34 32 33 35 32 29 27 25 24 23 21 19 17 14 13 12 11 10 10 11 11 10 10 10 12 15 18 19 21 23 24 25 27 29 30 30 30 32 33 35 37 39 42 44 46 48 50 52 54 56 58 60 61 61 62 61 60 60 60 60 60 60 59 59 59 58
50 50 50 50 49 49 48 48 48 46 46 46 46 46 45 43 43 43 40 37 35 33 31 29 29 31 29 27 25 22 21 20 18 16 14 13 11 10 8 8 11 12 11 11 12 14 15 16 19 21 23 25 26 27 28 30 30 30 31 33 35 36 38 40 43 46 49 51 53 55 57 58 60 61 62 63 63 62 61 61 60 60 61 61 60 60 59 58
48 48 48 48 47 46 46 46 45 44 44 43 43 42 42 40 40 39 37 36 33 30 28 26 26 26 25 24 23 20 18 16 15 13 12 10 9 7 6 10 11 11 12 14 15 15 15 17 20 23 25 26 28 29 30 31 31 31 33 34 36 38 40 42 45 48 51 54 56 58 59 60 62 63 64 65 64 63 63 62 61 61 62 62 61 61 60 59
46 46 46 45 45 44 44 43 43 43 42 41 40 40 38 37 37 35 34 34 31 28 26 24 23 23 21 20 19 18 16 13 11 11 9 7 7 7 9 11 10 10 13 14 13 14 16 19 22 24 26 28 30 31 32 32 32 32 34 36 38 39 41 44 47 50 53 56 58 60 62 63 64 64 65 66 65 65 64 63 63 62 63 63 62 62 62 60
44 44 44 44 44 43 42 42 42 41 41 40 38 37 36 34 34 32 29 31 30 26 24 22 20 19 18 17 16 16 15 11 9 8 6 6 8 9 10 9 9 10 11 12 13 15 18 20 23 25 28 29 30 32 32 32 33 35 37 38 39 41 43 45 48 51 55 58 60 62 64 65 65 65 66 66 66 65 64 64 64 64 64 63 64 64 63 62
42 42 42 42 42 41 41 40 39 39 38 37 36 35 34 32 31 28 24 26 27 24 21 18 16 15 15 14 13 13 12 9 7 7 6 7 8 8 8 8 9 9 11 13 15 17 19 21 23 26 28 29 30 31 32 33 35 37 39 40 41 42 44 46 49 52 56 59 61 63 65 66 66 66 66 66 66 65 64 64 64 64 65 64 65 65 64 63
39 40 40 40 40 40 39 38 37 36 35 35 34 32 31 29 28 25 22 22 23 21 19 16 14 14 14 13 12 11 9 7 6 6 6 6 7 7 7 9 10 11 13 16 17 18 20 22 24 26 28 29 31 32 34 36 38 39 41 42 42 43 45 47 50 53 56 59 61 63 64 65 66 67 67 66 66 65 64 64 65 65 66 66 66 67 66 66
37 37 38 38 38 38 37 36 35 34 33 32 31 29 28 26 25 23 20 20 20 19 17 15 13 12 13 12 11 10 8 6 4 3 3 5 7 8 9 11 11 14 16 17 18 20 22 24 25 27 29 31 33 34 36 38 40 41 42 43 43 44 46 48 51 54 57 60 62 64 65 65 65 65 66 67 67 66 66 65 66 67 68 68 68 69 69 69
34 35 35 35 35 35 34 33 32 31 31 30 29 27 26 25 23 21 19 18 18 17 15 13 12 10 10 10 9 7 5 4 1 2 4 7 9 11 13 14 15 18 19 19 20 22 24 25 27 29 31 33 35 37 38 40 41 42 43 44 45 46 48 50 53 56 59 62 64 65 66 67 66 66 66 67 67 68 68 67 68 68 69 70 71 71 71 71
31 31 32 32 32 31 30 29 28 28 28 27 26 24 24 23 21 19 17 15 15 15 13 12 11 9 8 7 5 3 1 0 2 4 7 10 13 15 16 17 19 21 22 22 23 24 25 27 29 30 32 34 36 38 40 41 42 43 44 45 47 48 50 52 54 57 61 64 66 66 65 66 67 67 67 67 67 68 69 69 70 70 71 71 72 73 73 72
28 29 29 29 28 28 26 25 25 24 24 23 22 21 20 19 17 16 15 13 11 11 11 11 9 7 5 3 1 1 3 5 7 9 11 14 16 18 19 20 22 23 24 24 25 27 28 29 31 33 34 36 38 39 41 42 43 44 45 47 48 50 53 56 57 59 61 63 65 67 67 67 67 68 68 68 69 69 70 71 72 72 73 73 73 74 73 73
26 26 26 26 26 25 24 23 23 22 21 21 20 19 18 16 14 12 12 10 8 7 8 8 7 5 3 3 4 6 8 9 11 13 15 17 19 21 22 23 24 25 26 27 28 30 31 32 34 35 37 38 39 40 42 43 44 45 46 48 50 52 55 59 61 62 63 62 63 66 69 69 69 70 70 71 71 71 72 73 74 74 74 74 74 74 74 73
24 24 24 24 23 23 23 22 22 21 20 19 18 17 16 15 12 11 11 10 10 9 8 7 7 6 6 7 8 10 11 12 14 16 18 20 22 23 24 25 26 28 29 29 31 32 33 35 37 38 40 40 41 42 43 44 45 46 47 49 51 53 56 59 62 65 66 65 64 65 68 70 70 71 72 73 73 74 74 75 75 75 75 75 75 74 74 73
22 23 22 22 22 22 22 22 21 21 20 19 18 17 16 15 14 13 13 13 13 12 11 10 9 9 9 10 11 12 14 15 17 19 21 22 24 25 27 28 29 30 31 32 33 35 36 38 40 41 42 42 43 43 44 46 47 48 49 51 52 54 56 58 60 64 67 68 66 65 67 70 71 72 73 74 75 75 75 75 75 76 76 76 75 75 74 73
22 22 22 22 22 22 22 22 21 21 20 19 19 19 18 18 18 16 16 16 15 13 13 12 12 12 12 13 14 15 17 18 20 22 23 24 25 27 28 29 30 32 33 35 36 38 39 41 42 43 43 44 44 45 46 47 48 49 50 52 54 55 57 59 61 63 66 68 68 66 67 70 72 73 74 73 74 76 75 75 76 76 76 76 76 75 74 74
23 22 22 22 22 22 22 22 22 22 21 21 20 20 20 20 20 19 18 16 15 15 14 14 14 14 15 15 16 17 19 21 22 24 25 26 27 28 30 31 33 34 35 37 38 39 41 42 43 44 45 45 45 46 47 48 49 50 51 53 55 57 58 60 62 64 66 68 68 66 65 68 72 73 74 74 74 75 76 75 76 77 77 78 77 76 75 75
23 23 22 22 22 22 23 23 23 23 22 22 22 22 22 21 21 20 19 17 17 17 16 17 17 17 18 19 20 21 22 23 25 26 27 28 29 31 32 33 35 36 37 38 40 41 42 43 44 45 46 46 46 47 48 49 50 51 52 54 55 57 59 61 62 64 66 67 69 68 65 65 69 71 72 73 73 75 77 77 77 78 79 79 78 77 76 77
23 23 23 22 22 22 23 23 23 23 23 23 23 22 22 22 22 21 20 20 19 19 19 19 20 20 21 22 23 24 25 26 27 28 29 30 31 33 34 35 36 38 39 40 41 42 43 44 45 46 47 47 48 48 48 49 50 52 53 55 56 58 60 62 63 64 64 64 66 70 68 65 67 70 72 73 74 76 79 79 79 80 80 80 79 78 77 78
24 23 23 23 23 23 23 23 23 23 23 23 23 23 22 22 22 21 21 21 21 22 22 22 22 23 24 25 26 27 28 29 30 30 31 32 33 35 36 37 38 39 40 41 42 43 44 45 46 47 48 49 49 49 50 50 52 53 55 57 58 59 61 63 64 64 65 64 63 68 72 69 68 70 72 74 75 77 80 81 81 81 81 80 79 79 78 79
25 24 24 24 23 23 23 24 24 24 24 24 24 23 22 22 22 22 22 22 23 23 23 24 25 25 26 27 28 29 30 31 32 33 34 35 36 37 38 39 40 41 42 43 43 44 45 46 47 49 49 50 51 51 52 52 53 55 57 59 60 61 63 65 67 67 67 67 64 66 72 72 70 72 74 76 77 77 80 82 82 82 82 81 80 79 80 82
26 26 26 25 25 25 25 25 25 25 25 25 25 25 24 24 24 24 23 23 24 24 25 26 27 28 29 30 31 31 32 33 34 36 36 37 38 39 40 40 41 43 44 45 45 46 47 47 48 49 51 52 52 53 54 54 55 56 58 61 63 64 65 66 69 70 70 71 68 67 73 75 73 75 77 79 80 79 80 83 83 84 83 82 81 81 82 84
26 27 27 27 27 27 26 26 27 27 27 27 27 27 26 26 26 26 26 26 26 27 27 28 29 30 31 32 33 34 35 36 37 38 39 39 40 41 42 43 44 45 46 47 48 48 49 50 51 51 52 54 55 55 57 58 57 58 60 63 65 67 68 68 69 72 73 74 73 70 74 77 76 76 78 79 81 81 81 83 84 84 84 83 83 84 85 85
27 27 28 28 28 28 28 28 28 28 29 29 29 29 29 29 29 29 29 29 30 30 31 31 32 33 34 35 36 37 37 38 39 40 41 42 43 43 44 45 46 47 48 49 50 50 51 52 53 53 53 55 56 57 59 61 60 60 61 64 67 69 70 71 71 72 74 76 76 73 74 77 77 77 78 80 82 82 82 83 84 85 85 84 84 85 86 86
27 28 28 29 29 30 30 30 30 31 31 32 32 32 32 32 32 33 33 33 34 34 35 35 36 37 37 38 39 40 40 41 42 43 44 45 46 46 47 48 48 50 50 51 52 53 53 53 54 55 55 57 59 59 61 63 64 64 64 65 67 69 71 72 72 73 74 77 78 75 74 76 77 78 79 80 83 84 83 84 85 85 86 85 85 86 86 87
28 29 29 30 31 31 32 32 32 33 33 34 34 35 35 36 36 36 36 37 37 38 38 39 39 40 41 41 42 43 43 44 45 46 47 48 49 49 50 51 51 52 53 53 54 55 55 55 55 56 57 57 59 61 62 64 66 65 65 65 67 69 71 73 74 74 75 77 79 77 75 76 78 80 81 82 84 85 85 85 87 86 86 85 85 86 87 87
30 31 32 32 32 33 34 34 35 35 36 36 37 37 38 38 39 39 40 40 41 41 42 43 43 44 45 45 46 47 47 48 48 49 50 51 52 52 53 53 54 55 55 56 56 57 58 58 57 58 59 57 58 59 60 62 65 66 65 65 67 69 72 74 75 76 75 76 79 80 78 77 78 81 82 82 84 85 85 85 87 87 86 85 86 86 87 87
33 33 34 34 34 35 36 37 37 38 39 39 39 40 40 41 42 42 43 44 44 45 45 46 47 48 49 49 50 51 51 52 52 53 54 54 55 56 56 56 56 57 58 58 59 59 60 61 61 61 63 62 60 61 61 63 66 68 68 68 69 71 73 76 77 78 78 78 80 82 82 80 79 80 81 81 82 84 84 84 85 86 86 85 86 86 87 88
36 36 36 37 37 37 38 39 39 40 41 41 42 43 43 44 45 45 46 47 48 48 49 50 50 51 52 52 53 54 54 55 55 56 57 57 58 58 58 59 59 59 60 60 61 61 61 63 64 64 66 67 65 64 65 66 68 71 71 71 72 73 75 78 80 81 81 81 82 83 84 84 82 81 83 82 82 83 83 83 84 84 84 84 85 86 87 88
38 39 40 40 40 41 42 42 42 43 43 44 45 45 46 47 47 48 49 49 50 51 52 52 53 54 54 55 55 56 57 57 58 58 59 60 60 60 61 61 61 61 62 62 63 63 62 64 65 65 67 71 70 67 67 68 70 73 74 73 73 75 77 79 82 84 84 84 85 85 86 87 86 84 85 85 84 84 85 84 84 84 84 84 85 86 87 88
41 42 43 43 43 44 45 45 45 46 46 47 47 48 49 50 50 51 52 52 53 54 54 55 56 56 57 57 58 58 59 60 60 61 61 61 62 62 62 63 63 63 64 64 65 65 65 65 66 66 67 72 74 72 70 71 72 74 75 74 75 76 78 79 82 85 86 86 86 86 86 87 88 87 87 87 86 86 87 86 85 86 86 85 85 86 87 89
43 44 45 45 45 46 47 48 48 48 49 50 50 51 52 52 53 54 54 55 56 56 57 58 58 59 59 60 60 61 61 62 62 63 63 63 64 64 64 65 66 66 66 67 67 68 67 67 68 68 67 71 75 75 74 74 74 76 77 76 76 77 78 79 82 86 88 87 87 87 87 87 88 88 88 89 89 88 88 88 86 87 87 86 86 87 88 89
43 44 45 46 47 47 48 49 50 50 51 52 52 53 54 55 55 56 57 57 58 59 59 60 61 61 62 62 63 63 64 64 65 65 65 66 66 67 67 67 68 69 69 70 70 71 71 70 71 71 69 71 75 76 75 75 76 78 78 77 77 78 78 79 82 86 88 87 86 87 88 88 88 88 88 89 91 90 90 89 87 86 87 86 86 87 88 89
43 44 44 45 46 48 48 49 50 51 52 53 54 55 55 56 57 57 58 59 59 60 61 62 63 64 64 65 65 65 66 66 67 67 67 68 68 69 69 70 71 71 72 73 73 74 74 74 74 74 73 73 75 77 76 76 78 80 80 79 79 79 78 79 82 86 88 86 86 87 89 89 89 88 88 88 90 91 92 90 87 85 86 86 87 87 88 89
Wind_Direction
256 246 238 227 213 196 181 172 166 162 157 151 146 143 140 137 136 134 132 131 130 130 130 130 130 130 129 126 123 121 119 118 117 117 118 118 118 118 118 117 117 117 116 116 115 115 114 113 114 114 114 114 115 115 114 112 108 103 97 89 83 78 71 63 52 41 31 22 13 5 357 351 345 341 337 336 335 334 333 333 333 334 336 337 339 340 341 343
229 212 193 173 160 153 149 147 145 143 140 137 135 133 131 130 129 128 126 126 126 126 126 126 126 126 124 122 120 118 118 118 118 119 119 119 118 118 117 116 116 116 116 116 116 116 116 116 116 116 115 115 115 113 112 108 102 97 91 86 82 77 69 58 48 38 28 19 12 4 358 353 348 344 341 339 337 334 332 332 333 334 335 336 338 339 340 341
164 152 145 140 139 138 138 138 136 134 132 129 127 126 125 124 123 122 122 122 122 122 122 122 122 122 120 119 118 118 118 119 119 119 119 118 117 116 116 116 116 117 117 117 117 116 116 117 116 114 113 113 112 110 107 102 96 92 87 83 77 68 60 50 41 31 23 15 9 4 358 353 348 346 344 342 340 337 335 334 334 334 335 335 336 337 339 339
133 131 131 132 133 134 134 132 130 127 125 123 122 121 121 120 120 120 120 120 120 120 120 120 119 119 119 119 119 119 119 119 119 119 118 117 117 116 116 117 117 117 117 116 117 116 115 114 113 112 112 111 109 107 103 96 91 86 80 74 66 57 48 39 30 23 17 11 6 1 357 352 349 346 345 345 344 341 339 337 336 335 335 336 336 336 338 338
125 127 129 131 131 130 128 126 123 121 121 120 119 119 119 119 119 119 119 119 119 119 119 118 118 118 119 119 119 119 118 118 118 118 118 118 118 117 117 117 117 116 116 115 115 113 111 110 110 110 110 108 105 101 94 87 81 76 69 60 52 43 36 29 23 17 12 7 3 359 356 353 350 348 346 346 346 345 343 341 339 338 338 337 337 336 337 338
125 127 129 129 127 125 123 121 120 119 119 119 119 118 118 118 118 118 118 118 118 119 118 118 118 119 119 119 119 119 118 119 119 119 119 119 118 117 116 116 116 115 115 114 112 109 109 109 109 109 107 102 98 92 84 77 72 66 57 47 40 33 27 22 17 12 7 3 359 357 356 354 352 350 347 346 346 346 345 344 342 341 339 338 337 336 336 338
126 127 126 124 122 120 119 119 119 119 119 118 118 118 118 118 118 118 118 119 119 119 119 119 119 119 120 119 119 118 119 120 120 119 119 118 117 116 115 115 115 115 114 112 110 109 109 109 108 106 100 95 90 84 77 72 64 55 47 39 34 29 23 17 11 7 4 1 358 357 356 355 354 351 349 348 347 346 345 344 343 342 341 340 338 337 337 337
125 124 122 120 118 118 118 119 119 119 118 118 118 118 118 119 119 119 120 120 120 120 120 120 120 120 120 118 118 119 120 120 119 118 118 118 117 117 116 116 116 115 113 111 111 111 109 107 105 101 94 89 84 78 72 65 55 47 40 35 30 25 19 14 9 5 2 360 358 357 356 355 353 352 350 349 348 346 345 344 343 343 342 341 340 338 338 337
122 120 118 117 117 118 118 119 119 119 119 119 119 119 119 120 120 121 121 121 121 120 120 120 120 120 119 118 119 120 120 119 119 118 118 118 118 117 116 116 116 115 113 112 112 110 108 104 99 95 91 84 78 70 62 55 48 41 35 31 26 21 16 12 7 2 360 358 357 355 354 353 352 352 350 349 348 348 347 346 344 344 343 342 340 340 339 338
119 118 117 117 118 119 119 119 119 119 119 120 120 120 121 121 121 121 122 122 121 121 120 120 120 121 120 119 121 121 120 119 119 119 119 119 118 117 116 116 115 114 114 114 111 109 105 100 95 92 87 77 68 60 52 46 40 34 30 26 21 17 14 10 5 1 359 356 355 353 352 352 352 352 351 350 349 349 349 348 346 344 343 342 341 341 341 339
117 118 118 118 119 119 119 120 120 120 120 121 121 121 122 122 122 122 122 122 121 121 121 121 121 122 121 120 122 121 120 120 120 120 120 119 118 117 116 115 116 116 114 112 110 108 103 96 91 85 78 69 60 52 44 38 33 27 23 20 16 13 11 8 4 0 357 354 352 352 351 351 351 352 352 351 350 349 349 348 346 345 344 343 342 342 342 340
118 118 119 119 120 120 120 121 121 121 121 122 122 122 123 123 123 123 122 122 121 122 122 122 122 122 121 122 122 121 121 121 121 121 120 120 119 117 116 117 118 116 112 110 110 106 100 93 85 76 70 63 52 43 36 29 25 20 17 14 10 9 7 4 1 358 355 352 351 351 350 351 352 352 352 351 350 349 348 348 347 345 345 343 343 343 343 342
119 120 120 121 121 121 121 122 122 122 123 123 123 124 124 124 123 123 122 122 123 123 123 123 123 122 122 122 122 122 122 122 122 122 121 121 120 119 118 119 118 116 112 109 108 101 95 89 79 68 62 56 46 36 28 21 17 13 12 9 6 5 3 1 359 356 354 352 351 350 350 351 351 352 351 350 349 348 348 348 347 347 346 345 344 344 344 344
121 121 122 122 122 122 123 123 123 124 124 124 125 125 124 124 124 123 123 124 124 123 123 124 123 122 123 122 121 122 123 123 123 122 123 123 122 121 120 119 118 116 110 105 100 94 88 83 74 63 55 49 39 30 22 15 11 9 8 6 3 2 0 359 358 356 353 351 349 349 349 350 350 350 350 349 348 348 348 348 348 348 347 347 346 345 345 344
122 122 123 123 123 123 124 124 125 125 125 126 126 125 125 125 124 124 125 125 125 124 125 124 123 125 124 121 121 123 123 123 123 123 123 121 121 120 118 117 116 110 103 98 94 86 78 74 67 57 49 41 32 25 18 11 7 6 5 3 1 359 359 358 357 354 352 349 347 347 349 350 349 349 349 349 348 348 349 349 349 349 349 348 347 345 345 344
123 123 123 124 124 125 125 125 126 126 126 126 126 126 126 125 125 126 126 126 126 126 125 124 126 127 123 121 124 125 124 124 124 124 122 119 119 118 116 113 109 103 96 89 83 75 67 60 53 47 41 33 26 20 14 9 5 3 2 0 359 358 357 357 356 353 349 346 345 346 348 349 349 349 349 349 348 349 350 350 350 350 350 348 346 345 344 344
124 124 124 125 126 126 126 126 127 127 127 127 127 127 127 126 127 127 127 127 127 126 126 127 130 126 122 125 127 125 125 126 125 123 119 117 115 112 110 108 104 100 93 83 72 63 50 38 30 29 29 24 20 16 11 7 3 1 0 359 358 355 355 355 354 351 347 345 344 345 347 348 348 349 350 349 349 350 350 350 350 350 350 348 346 345 344 344
125 125 126 126 127 127 127 127 128 128 128 128 128 128 128 128 128 128 128 128 126 127 128 131 131 125 124 128 127 126 127 126 122 118 114 111 107 102 97 92 86 84 83 77 64 48 34 21 8 7 15 15 15 12 8 4 1 360 359 358 355 352 352 353 353 350 346 344 343 345 347 348 349 349 350 350 350 350 351 350 350 349 349 347 345 344 344 343
126 127 127 127 128 128 128 128 128 129 129 129 129 129 129 129 129 129 129 127 127 130 131 134 131 125 126 128 126 127 125 120 116 112 109 105 100 92 81 70 63 57 52 49 43 33 26 12 355 355 6 9 10 8 5 2 359 357 357 355 352 349 351 352 352 349 346 343 344 346 347 348 349 350 350 350 350 350 350 350 350 349 347 346 345 344 344 343
128 128 128 128 129 129 129 129 130 130 130 130 130 129 130 130 130 129 129 129 131 133 134 136 131 125 126 128 126 126 124 118 114 110 104 98 92 80 70 62 51 37 26 27 26 20 20 3 345 352 4 4 4 4 2 0 356 355 354 353 349 348 350 352 351 349 345 344 345 347 348 348 349 350 350 351 350 350 350 350 349 348 346 345 344 344 344 343
129 129 129 130 130 130 130 131 131 131 131 131 131 131 132 132 131 131 133 133 134 136 138 138 130 126 129 130 128 126 122 115 112 107 99 92 80 70 65 60 43 20 6 12 15 13 10 352 345 356 2 0 0 0 360 356 352 352 352 350 348 348 351 352 351 349 346 346 347 348 348 348 349 350 350 350 350 349 349 349 348 346 345 344 343 343 344 344
130 130 131 131 132 132 132 132 133 133 133 133 133 133 133 133 133 134 137 137 137 139 139 136 130 130 132 129 126 122 114 109 106 100 93 86 76 63 55 50 32 1 358 7 4 2 358 352 354 358 357 357 357 356 356 352 349 350 349 347 347 349 352 352 351 349 347 347 348 348 348 349 349 350 350 350 349 348 348 347 346 345 345 344 343 343 344 345
133 133 133 134 134 135 135 135 135 136 136 136 136 135 135 136 136 139 142 140 140 141 140 138 135 135 133 128 124 118 108 101 97 93 91 88 72 50 39 35 11 353 0 357 347 345 352 357 357 355 354 354 353 353 351 346 345 347 347 347 348 350 352 352 351 349 348 348 348 348 348 349 349 349 349 349 348 347 346 346 345 345 344 343 343 343 345 346
136 136 137 137 137 138 138 139 138 139 139 139 139 138 139 140 139 143 147 143 141 143 143 141 139 137 133 127 122 113 105 99 96 94 91 75 54 33 23 11 348 351 351 337 336 344 352 357 354 352 351 349 349 349 345 341 343 345 346 347 349 350 351 351 350 349 348 349 348 348 348 349 348 348 348 348 347 346 345 345 345 344 343 343 343 344 346 345
138 139 140 140 140 141 141 142 142 142 142 141 142 143 143 144 144 148 152 146 143 145 145 143 143 140 132 124 116 107 105 109 104 86 64 45 31 14 1 340 329 338 335 332 340 346 350 352 351 349 345 343 344 343 339 340 344 345 345 347 348 349 350 349 349 348 349 348 348 348 349 348 347 347 347 347 345 344 344 344 344 343 343 343 344 345 346 345
141 141 142 142 143 143 144 145 145 145 144 144 146 147 147 147 148 153 157 151 147 149 150 150 152 146 134 127 120 114 116 112 91 65 41 18 358 343 331 315 315 329 332 334 339 342 346 348 347 344 339 339 340 338 339 342 343 344 345 346 347 347 348 347 347 347 347 347 347 347 348 347 346 346 346 345 343 343 343 344 343 342 342 343 344 345 345 345
143 144 144 145 145 146 148 148 148 148 148 148 150 151 151 152 153 157 162 157 153 154 155 158 162 154 142 138 131 127 124 108 81 45 358 336 323 320 313 309 319 330 329 330 336 340 342 343 342 337 334 335 337 338 340 342 342 342 343 344 344 345 345 345 346 345 346 346 346 346 346 345 345 345 344 343 342 342 343 344 343 342 343 344 345 345 345 345
146 146 147 148 149 150 151 152 152 152 152 154 156 156 157 158 160 164 168 164 160 161 162 165 170 166 155 144 136 131 123 111 99 298 302 305 309 313 313 317 326 327 324 327 335 337 337 337 334 331 331 334 336 338 339 339 340 341 341 341 342 343 343 343 344 344 344 344 345 345 345 343 343 344 343 342 342 342 342 343 343 343 344 345 345 345 345 345
149 150 151 152 152 153 154 155 156 156 157 159 161 162 163 165 167 171 175 174 169 169 174 178 180 181 170 152 141 137 126 121 296 299 301 307 311 314 317 322 324 321 321 327 331 331 331 331 330 329 331 333 336 337 337 337 338 338 339 340 340 341 341 342 342 343 343 344 344 343 343 342 342 342 342 341 341 342 342 342 343 343 344 345 345 344 344 345
154 155 155 155 157 158 160 161 161 162 162 164 167 168 169 172 176 179 182 186 184 181 188 196 197 194 187 174 171 309 317 313 313 315 313 313 314 316 319 320 318 318 322 326 327 328 328 329 328 328 330 332 334 334 335 335 335 336 337 338 338 339 339 340 340 341 342 342 342 341 340 341 341 340 340 340 341 342 342 343 343 344 345 345 344 344 344 344
159 160 160 161 162 164 166 167 168 169 170 172 175 176 178 181 186 192 196 207 218 220 217 218 226 235 253 294 310 316 318 316 317 318 316 315 315 316 317 317 318 320 322 324 325 326 326 326 326 327 328 330 331 332 333 333 333 334 335 336 337 338 339 339 338 339 339 340 341 341 339 339 340 340 339 340 341 342 343 343 343 344 344 344 344 343 343 343
166 167 167 169 170 171 173 175 176 178 180 182 185 188 191 196 203 210 217 232 252 266 266 260 269 285 299 310 315 317 318 317 317 316 315 314 314 315 317 318 319 320 321 323 323 323 323 323 324 325 327 328 330 330 330 331 332 332 333 334 335 337 337 337 337 337 337 338 340 341 339 338 339 339 339 340 341 341 343 343 343 343 343 343 343 342 342 342
174 175 176 177 178 179 181 183 184 187 190 193 196 200 204 212 221 227 235 249 265 277 283 284 288 297 305 311 313 315 315 315 314 314 313 313 314 315 316 316 316 317 319 320 320 320 321 322 323 324 325 327 328 329 329 330 330 331 332 333 333 334 334 335 335 336 336 336 338 340 339 338 338 338 339 340 341 341 342 342 342 342 342 342 342 342 342 342
181 183 185 186 187 188 189 191 193 196 199 202 205 209 214 221 229 236 246 256 267 277 282 287 292 298 303 307 308 309 310 310 311 310 310 310 310 310 310 311 312 314 316 316 317 318 319 320 321 322 324 325 326 327 328 328 329 330 330 330 331 332 333 333 334 335 336 335 336 339 339 337 338 338 338 339 340 340 340 341 341 341 341 341 342 342 342 342
187 189 192 193 194 195 197 199 201 204 207 210 214 217 221 227 235 244 253 260 268 277 282 286 291 296 298 300 301 302 303 304 305 305 305 305 305 306 307 308 310 311 312 313 314 316 317 318 320 321 322 323 325 326 326 327 327 328 328 329 330 330 331 332 334 335 335 335 335 336 338 338 337 337 337 338 339 338 338 340 341 341 341 341 342 342 342 342
191 194 196 198 200 203 204 205 209 211 214 218 222 225 229 235 242 249 257 263 271 279 285 289 292 294 295 295 295 296 297 299 300 301 301 302 303 304 305 307 308 309 311 312 313 315 317 318 319 320 321 322 323 324 325 325 326 326 327 327 328 329 330 331 333 333 334 334 334 332 335 337 336 335 336 337 338 337 338 339 340 340 341 341 341 342 341 341
195 198 201 203 205 209 210 212 215 218 221 225 228 232 236 242 247 253 260 265 272 278 284 288 291 293 293 293 293 294 295 296 297 298 299 300 302 303 304 305 307 309 310 312 314 315 317 317 319 320 321 321 322 322 323 324 324 325 325 326 327 328 328 330 331 331 331 333 333 331 331 334 335 334 335 336 337 339 338 339 340 340 341 341 341 341 341 340
201 203 206 208 211 214 216 219 221 224 227 230 234 238 242 247 252 258 263 268 273 277 281 285 288 290 292 292 293 293 294 295 296 298 299 300 302 303 304 305 307 309 311 313 314 316 317 318 318 319 320 320 321 321 322 322 323 324 325 325 325 327 328 329 329 329 328 329 332 331 329 331 334 334 335 336 338 340 339 339 340 340 340 340 340 340 340 339
207 209 212 215 217 220 222 225 227 230 232 235 239 243 247 252 257 262 266 269 273 276 280 283 286 289 291 292 293 294 295 296 297 299 300 301 302 303 304 306 308 310 312 313 314 316 316 317 318 318 319 319 319 320 320 321 323 324 324 324 325 327 329 329 328 327 327 327 330 332 329 329 333 333 335 336 337 339 340 339 340 340 339 339 339 339 339 339
211 214 217 220 224 227 229 231 233 236 238 241 245 249 253 257 260 264 268 271 275 278 281 284 287 289 291 292 294 295 297 298 299 300 301 302 303 304 305 306 307 309 311 313 314 315 315 316 317 317 317 318 318 319 319 320 322 323 324 324 326 327 328 329 328 327 327 327 328 332 331 329 332 334 335 336 336 338 340 339 339 339 338 338 338 338 338 338
217 219 222 225 229 232 234 237 239 241 243 246 249 253 258 262 265 269 272 275 278 280 283 285 288 290 291 293 295 296 298 299 300 301 302 303 303 304 305 306 307 308 310 311 312 314 315 315 316 316 317 317 318 319 319 320 321 322 324 325 326 327 327 328 328 327 327 326 327 331 332 330 332 334 335 335 335 337 339 339 338 338 337 337 337 337 337 338
223 226 228 231 234 237 240 242 245 247 250 252 255 259 262 266 269 272 274 277 279 281 283 285 288 290 292 294 295 296 297 299 300 301 302 303 303 304 305 306 306 308 309 310 311 313 314 314 315 315 316 316 317 318 319 319 320 322 323 325 325 326 326 326 327 327 327 326 326 329 331 330 330 332 333 334 335 336 338 338 337 337 336 336 336 336 336 337
230 232 234 236 239 242 244 247 250 252 255 257 259 262 265 268 270 273 275 277 279 281 283 285 287 289 291 293 295 296 297 298 300 301 302 303 303 304 305 305 306 307 308 309 310 311 312 313 314 314 315 316 316 318 319 320 320 322 323 324 325 324 324 324 325 325 326 326 324 326 329 329 330 331 332 334 334 335 337 337 336 336 336 335 336 335 335 336
237 238 240 242 245 247 249 252 254 256 258 260 263 265 267 269 271 274 276 278 280 282 284 286 288 290 291 293 294 296 297 298 299 300 301 302 303 303 304 305 305 306 307 308 309 310 311 311 312 312 313 314 315 316 318 318 319 320 321 322 323 322 322 323 323 324 324 325 323 324 327 329 330 331 331 333 334 334 336 336 335 335 335 334 334 334 334 334
242 244 245 247 249 251 253 256 258 260 261 263 265 267 269 271 273 275 277 279 282 284 286 287 289 290 291 293 294 295 296 298 299 300 301 302 302 303 304 304 305 305 306 307 308 309 309 309 310 310 310 311 312 313 314 316 316 317 318 320 321 321 321 321 321 322 323 324 323 323 325 328 330 330 331 333 333 333 334 334 333 333 333 333 333 333 333 333
245 247 249 251 253 254 256 258 260 262 263 265 267 268 270 272 274 275 278 280 282 284 286 288 289 290 291 292 293 294 295 296 297 299 300 301 301 302 303 303 304 304 305 306 306 307 308 308 309 310 310 310 311 312 313 315 316 317 317 319 319 320 320 320 320 321 322 323 323 323 324 326 328 329 329 331 332 331 332 333 332 332 332 332 331 331 331 332
248 249 252 253 255 257 259 260 262 263 265 267 268 270 271 273 274 276 277 279 280 282 284 286 287 289 290 291 291 292 293 295 296 297 298 299 300 301 301 302 303 303 304 305 305 306 307 308 308 310 310 310 311 313 314 315 316 316 316 318 318 319 319 319 320 320 321 322 323 324 325 325 326 328 328 329 330 329 330 331 331 330 331 330 330 330 330 331
251 253 254 256 257 259 261 263 264 265 267 268 270 271 273 274 275 276 277 278 280 281 283 284 286 288 289 290 291 292 293 294 295 296 297 298 299 300 301 301 302 302 303 304 304 304 305 306 307 309 310 310 310 312 313 313 314 314 314 316 317 318 319 319 319 319 320 321 322 323 324 323 324 327 328 328 329 328 328 330 330 329 329 329 329 329 330 331
254 255 257 259 260 261 263 264 266 267 268 270 271 273 274 275 276 277 278 279 280 282 283 285 286 288 289 290 291 291 292 293 294 295 297 297 298 299 299 300 301 301 302 302 303 303 304 305 305 307 309 309 309 310 311 312 312 312 312 314 316 317 318 318 318 318 318 320 321 322 322 323 324 326 326 326 327 327 328 329 330 329 329 329 329 329 330 331
254 256 258 260 262 263 264 266 267 268 270 271 273 274 275 276 277 278 279 280 281 282 283 285 286 287 288 289 290 291 292 293 294 294 295 296 297 297 298 299 300 300 301 301 302 302 302 303 304 305 307 307 307 308 310 310 311 311 311 313 315 315 316 316 316 316 317 318 320 320 321 322 323 324 325 325 326 326 327 328 329 328 328 328 328 329 329 330
255 257 259 260 262 264 265 266 268 269 270 272 273 275 276 277 278 279 280 280 281 282 283 284 285 286 287 288 289 290 291 292 293 294 295 295 296 297 298 298 299 299 300 300 301 301 301 302 302 303 304 305 305 306 308 309 310 309 309 311 312 313 314 315 315 315 315 316 318 319 319 321 321 322 323 324 325 325 325 327 328 327 327 327 327 328 328 329
260 261 262 263 264 265 266 267 268 269 271 272 273 274 275 277 278 279 280 280 281 282 283 284 285 286 287 288 289 290 290 291 292 293 294 295 295 296 297 297 298 298 299 299 300 300 300 301 301 301 303 304 304 304 306 308 308 307 307 309 310 311 313 314 314 313 312 314 317 318 318 319 320 321 322 323 324 324 324 325 326 326 326 326 326 326 327 328
Height
10657 10656 10657 10657 10658 10659 10660 10661 10663 10664 10666 10667 10669 10670 10671 10672 10673 10674 10675 10676 10678 10679 10681 10682 10685 10687 10689 10691 10694 10697 10699 10702 10705 10708 10711 10713 10715 10718 10720 10723 10727 10730 10733 10736 10738 10740 10742 10745 10746 10748 10750 10751 10754 10755 10756 10757 10757 10757 10757 10756 10756 10756 10756 10755 10754 10753 10752 10751 10749 10748 10746 10743 10741 10739 10736 10733 10731 10728 10724 10721 10718 10714 10710 10706 10703 10699 10694 10689
10655 10655 10655 10656 10657 10658 10660 10661 10663 10665 10667 10668 10669 10671 10672 10673 10675 10676 10677 10678 10680 10682 10684 10686 10688 10691 10693 10694 10697 10700 10703 10705 10708 10711 10714 10716 10718 10721 10724 10727 10730 10734 10736 10739 10741 10743 10745 10748 10750 10751 10752 10753 10755 10756 10757 10757 10757 10757 10757 10756 10757 10756 10755 10754 10754 10753 10752 10750 10748 10746 10744 10741 10739 10736 10734 10731 10728 10725 10722 10718 10714 10711 10707 10703 10699 10695 10690 10685
10654 10655 10655 10656 10658 10659 10661 10663 10664 10666 10668 10669 10671 10673 10674 10676 10677 10679 10680 10682 10683 10686 10688 10691 10693 10695 10696 10698 10700 10703 10706 10709 10712 10715 10717 10720 10722 10725 10727 10731 10734 10737 10740 10742 10744 10746 10748 10751 10752 10753 10754 10755 10757 10757 10757 10757 10757 10757 10757 10757 10757 10756 10755 10754 10753 10752 10751 10749 10747 10745 10743 10740 10737 10735 10732 10729 10726 10723 10719 10715 10712 10708 10704 10700 10696 10692 10687 10683
10655 10656 10657 10658 10659 10661 10663 10665 10666 10668 10670 10672 10674 10675 10677 10679 10680 10682 10684 10686 10688 10690 10693 10696 10698 10699 10701 10703 10705 10707 10710 10714 10716 10719 10722 10724 10726 10728 10731 10734 10738 10741 10744 10746 10748 10749 10751 10753 10754 10755 10757 10757 10758 10758 10758 10758 10758 10758 10758 10757 10757 10756 10755 10754 10753 10751 10750 10748 10746 10744 10742 10739 10736 10733 10730 10727 10724 10721 10717 10713 10709 10705 10700 10696 10693 10688 10684 10679
10657 10658 10659 10660 10662 10663 10665 10667 10669 10671 10673 10675 10677 10679 10680 10682 10684 10686 10689 10691 10693 10695 10697 10700 10703 10705 10706 10708 10710 10712 10714 10718 10722 10724 10726 10728 10729 10732 10735 10738 10742 10745 10747 10750 10752 10752 10753 10755 10757 10758 10759 10759 10759 10760 10759 10758 10759 10759 10758 10758 10757 10756 10755 10753 10752 10751 10749 10748 10746 10743 10741 10738 10735 10732 10728 10725 10722 10718 10714 10710 10705 10701 10696 10692 10689 10684 10680 10675
10660 10661 10662 10663 10665 10666 10668 10670 10672 10675 10677 10679 10681 10683 10685 10687 10689 10692 10694 10696 10698 10700 10701 10704 10707 10710 10712 10714 10716 10717 10718 10723 10726 10728 10730 10732 10734 10736 10739 10742 10746 10749 10751 10753 10754 10755 10757 10759 10760 10761 10761 10761 10761 10761 10760 10760 10760 10759 10759 10758 10757 10755 10754 10753 10752 10751 10749 10747 10745 10743 10740 10737 10733 10729 10726 10723 10719 10715 10711 10706 10702 10698 10694 10689 10685 10681 10676 10671
10663 10664 10665 10667 10668 10670 10672 10674 10677 10679 10681 10684 10686 10688 10691 10693 10695 10697 10699 10701 10703 10705 10705 10708 10711 10715 10717 10719 10722 10722 10723 10728 10730 10732 10735 10737 10738 10739 10742 10746 10749 10751 10754 10755 10756 10758 10760 10762 10763 10763 10762 10763 10763 10762 10761 10761 10761 10760 10759 10758 10756 10755 10754 10753 10751 10750 10748 10746 10744 10741 10737 10734 10730 10727 10723 10720 10716 10712 10708 10704 10700 10695 10691 10686 10681 10677 10672 10667
10668 10668 10670 10671 10672 10674 10677 10679 10682 10684 10687 10689 10692 10694 10696 10699 10701 10702 10704 10706 10708 10709 10711 10713 10716 10721 10722 10723 10727 10728 10729 10732 10734 10736 10739 10741 10743 10743 10745 10749 10752 10754 10755 10757 10759 10761 10762 10764 10764 10764 10764 10764 10764 10763 10763 10762 10761 10759 10758 10757 10756 10755 10754 10752 10751 10749 10746 10744 10741 10738 10735 10731 10728 10725 10721 10718 10714 10710 10706 10701 10696 10691 10686 10682 10677 10672 10667 10662
10672 10673 10674 10676 10678 10680 10683 10685 10688 10690 10693 10695 10698 10700 10702 10704 10706 10708 10710 10711 10713 10714 10717 10719 10721 10725 10726 10727 10732 10734 10734 10736 10739 10741 10743 10746 10747 10747 10749 10752 10754 10756 10757 10759 10761 10763 10764 10765 10765 10765 10765 10765 10765 10764 10763 10761 10760 10759 10758 10757 10756 10755 10754 10752 10749 10747 10745 10742 10739 10736 10733 10730 10727 10723 10720 10716 10712 10707 10702 10698 10692 10687 10682 10677 10672 10667 10662 10657
10677 10678 10680 10682 10684 10686 10689 10691 10694 10696 10699 10701 10703 10705 10707 10709 10711 10713 10715 10717 10718 10720 10722 10724 10726 10729 10730 10732 10737 10739 10738 10741 10743 10745 10747 10749 10751 10751 10753 10755 10758 10759 10760 10762 10763 10764 10765 10765 10766 10766 10766 10765 10765 10764 10762 10761 10760 10760 10759 10758 10756 10755 10753 10751 10749 10746 10744 10741 10738 10735 10732 10728 10725 10721 10717 10713 10708 10703 10698 10693 10688 10683 10678 10673 10668 10663 10658 10653
10683 10684 10686 10688 10690 10693 10695 10698 10700 10703 10705 10707 10709 10711 10712 10714 10716 10719 10721 10723 10724 10724 10727 10730 10732 10734 10735 10737 10741 10743 10743 10745 10747 10749 10750 10752 10754 10754 10756 10758 10761 10762 10762 10764 10765 10765 10766 10766 10766 10766 10766 10765 10764 10763 10762 10762 10761 10760 10759 10757 10756 10754 10752 10750 10748 10746 10743 10740 10737 10734 10731 10727 10722 10718 10713 10708 10704 10699 10694 10690 10685 10680 10675 10670 10664 10659 10654 10649
10689 10691 10693 10695 10697 10699 10701 10704 10706 10708 10710 10712 10714 10716 10718 10720 10722 10724 10726 10728 10729 10730 10732 10734 10737 10738 10739 10742 10745 10747 10748 10749 10751 10753 10753 10755 10757 10757 10759 10761 10763 10764 10764 10765 10767 10767 10766 10766 10766 10766 10766 10764 10764 10763 10763 10762 10761 10760 10758 10757 10755 10753 10751 10749 10747 10744 10741 10738 10734 10730 10726 10722 10718 10713 10708 10704 10700 10696 10692 10687 10682 10677 10672 10666 10660 10655 10649 10644
10696 10697 10699 10701 10703 10705 10707 10710 10712 10714 10716 10718 10719 10721 10723 10725 10727 10729 10731 10733 10735 10736 10737 10739 10742 10744 10745 10747 10750 10751 10753 10754 10755 10756 10757 10759 10760 10760 10762 10763 10765 10766 10766 10767 10768 10767 10767 10766 10766 10766 10765 10764 10764 10764 10763 10762 10761 10760 10758 10756 10754 10751 10749 10746 10744 10741 10737 10734 10730 10726 10722 10718 10714 10709 10705 10701 10697 10693 10689 10684 10679 10674 10668 10662 10656 10650 10644 10638
10702 10704 10706 10707 10709 10711 10713 10715 10717 10719 10721 10723 10725 10727 10729 10731 10733 10735 10737 10738 10740 10741 10743 10744 10746 10750 10751 10751 10754 10756 10757 10759 10760 10761 10761 10762 10763 10764 10765 10766 10768 10768 10768 10768 10768 10768 10768 10766 10766 10766 10765 10764 10764 10764 10763 10762 10761 10759 10757 10754 10752 10749 10746 10743 10740 10737 10734 10730 10727 10724 10720 10715 10711 10707 10703 10699 10695 10690 10685 10680 10675 10669 10663 10656 10650 10644 10639 10633
10708 10709 10711 10713 10715 10717 10719 10721 10722 10724 10726 10728 10730 10732 10734 10736 10738 10740 10742 10744 10745 10746 10749 10750 10750 10754 10755 10755 10758 10761 10762 10762 10764 10765 10765 10766 10767 10768 10768 10769 10770 10770 10770 10770 10769 10769 10769 10767 10767 10767 10766 10765 10764 10763 10763 10762 10760 10758 10755 10753 10750 10747 10743 10740 10737 10734 10731 10729 10726 10722 10718 10713 10709 10705 10700 10696 10691 10686 10680 10675 10669 10663 10656 10650 10645 10640 10635 10629
10713 10715 10717 10719 10721 10723 10725 10726 10728 10729 10731 10733 10735 10737 10739 10741 10743 10745 10747 10749 10750 10751 10752 10754 10756 10757 10756 10758 10761 10763 10765 10766 10767 10768 10769 10770 10771 10771 10771 10772 10772 10771 10771 10771 10771 10770 10770 10769 10768 10767 10766 10765 10764 10763 10762 10760 10759 10756 10754 10751 10748 10745 10742 10738 10735 10732 10730 10727 10723 10720 10715 10711 10707 10702 10697 10692 10687 10681 10675 10669 10663 10657 10651 10646 10641 10636 10631 10626
10719 10721 10722 10724 10726 10728 10730 10732 10733 10735 10736 10738 10739 10741 10743 10745 10747 10749 10751 10753 10755 10756 10757 10758 10761 10760 10759 10762 10764 10765 10767 10769 10770 10771 10772 10772 10773 10773 10773 10773 10773 10772 10772 10772 10771 10771 10770 10769 10769 10768 10767 10765 10764 10762 10760 10759 10757 10755 10752 10749 10747 10744 10741 10737 10734 10731 10728 10725 10721 10717 10713 10708 10704 10698 10693 10688 10682 10676 10670 10664 10658 10653 10648 10644 10639 10634 10628 10622
10725 10726 10727 10729 10731 10733 10734 10737 10739 10740 10741 10742 10744 10745 10747 10749 10751 10754 10756 10757 10758 10761 10762 10763 10764 10763 10763 10766 10767 10768 10770 10771 10772 10773 10774 10774 10774 10775 10775 10775 10774 10774 10773 10772 10771 10770 10770 10770 10770 10769 10767 10765 10763 10761 10760 10758 10756 10754 10751 10748 10746 10743 10740 10736 10733 10729 10726 10722 10718 10713 10709 10704 10699 10694 10689 10683 10677 10671 10665 10660 10655 10650 10646 10641 10637 10631 10625 10619
10730 10731 10732 10734 10736 10738 10739 10741 10743 10745 10746 10747 10748 10750 10751 10753 10754 10757 10760 10761 10762 10765 10767 10768 10767 10765 10767 10770 10771 10772 10773 10773 10774 10775 10775 10776 10775 10775 10775 10775 10775 10775 10774 10773 10772 10771 10770 10770 10770 10768 10766 10764 10762 10760 10759 10757 10755 10752 10750 10747 10745 10742 10738 10734 10730 10727 10724 10720 10715 10710 10704 10699 10694 10689 10684 10678 10673 10667 10662 10656 10651 10647 10642 10638 10634 10628 10623 10616
10735 10736 10737 10739 10740 10742 10744 10746 10748 10750 10751 10752 10753 10754 10756 10757 10758 10760 10763 10765 10766 10769 10770 10772 10770 10768 10770 10773 10774 10775 10776 10775 10775 10776 10776 10776 10776 10776 10776 10776 10775 10775 10774 10774 10772 10771 10770 10769 10769 10768 10765 10763 10761 10759 10757 10756 10754 10751 10749 10746 10743 10740 10736 10732 10728 10725 10721 10716 10711 10706 10701 10695 10690 10685 10679 10674 10668 10663 10658 10653 10648 10644 10640 10636 10631 10626 10620 10613
10740 10741 10742 10743 10745 10747 10748 10750 10752 10754 10756 10757 10758 10759 10760 10761 10762 10762 10765 10768 10770 10772 10773 10775 10773 10771 10773 10774 10775 10777 10778 10777 10777 10777 10777 10777 10777 10777 10777 10776 10775 10775 10775 10774 10772 10770 10769 10769 10769 10766 10764 10762 10760 10758 10756 10755 10753 10750 10747 10744 10741 10737 10733 10729 10726 10722 10717 10712 10706 10701 10696 10691 10686 10680 10675 10670 10665 10660 10655 10651 10647 10642 10638 10633 10628 10622 10616 10609
10744 10745 10747 10748 10750 10751 10753 10754 10756 10758 10760 10761 10762 10763 10764 10765 10765 10767 10768 10770 10772 10775 10776 10776 10776 10775 10776 10777 10777 10778 10779 10779 10778 10778 10778 10778 10778 10778 10777 10775 10775 10776 10775 10772 10771 10770 10770 10769 10767 10765 10763 10761 10759 10757 10755 10754 10752 10749 10746 10742 10738 10734 10730 10726 10722 10718 10713 10707 10701 10696 10691 10686 10682 10677 10671 10666 10662 10657 10652 10648 10644 10640 10635 10629 10624 10618 10612 10604
10748 10749 10751 10752 10754 10755 10757 10758 10760 10761 10763 10764 10766 10766 10767 10769 10769 10771 10772 10771 10773 10776 10777 10778 10778 10778 10778 10778 10779 10779 10779 10780 10779 10779 10779 10779 10778 10778 10777 10775 10776 10775 10774 10773 10772 10771 10769 10767 10765 10764 10762 10760 10758 10756 10754 10753 10751 10747 10744 10740 10736 10731 10727 10723 10719 10714 10709 10703 10697 10692 10687 10682 10677 10673 10668 10663 10658 10654 10649 10645 10641 10637 10632 10626 10620 10614 10606 10599
10752 10753 10754 10756 10757 10759 10760 10762 10763 10764 10766 10767 10769 10769 10770 10772 10772 10774 10775 10774 10775 10777 10778 10779 10780 10780 10780 10780 10780 10779 10779 10780 10780 10780 10780 10779 10778 10778 10777 10776 10776 10775 10774 10774 10773 10770 10768 10765 10764 10763 10761 10759 10757 10755 10754 10753 10749 10745 10741 10737 10733 10728 10724 10720 10716 10712 10706 10700 10694 10688 10683 10678 10674 10670 10665 10661 10656 10651 10647 10643 10638 10633 10629 10623 10616 10609 10601 10594
10756 10757 10758 10759 10760 10762 10764 10765 10766 10768 10769 10770 10771 10772 10773 10774 10775 10777 10779 10777 10777 10778 10780 10781 10782 10782 10781 10781 10780 10780 10779 10780 10780 10780 10779 10779 10778 10778 10777 10777 10776 10775 10774 10773 10771 10769 10767 10765 10764 10762 10761 10759 10757 10756 10754 10750 10746 10741 10738 10734 10730 10725 10722 10718 10714 10709 10704 10698 10692 10687 10681 10675 10671 10667 10663 10659 10655 10651 10646 10641 10635 10630 10625 10619 10612 10604 10597 10591
10760 10760 10762 10763 10764 10765 10767 10768 10770 10771 10772 10772 10774 10775 10776 10776 10777 10779 10781 10780 10779 10780 10781 10782 10783 10783 10782 10781 10781 10780 10780 10780 10780 10779 10779 10779 10778 10778 10778 10777 10776 10775 10773 10772 10770 10768 10766 10764 10762 10761 10760 10758 10756 10754 10751 10746 10742 10739 10735 10731 10727 10723 10720 10716 10712 10707 10702 10697 10692 10687 10682 10677 10671 10665 10661 10658 10654 10650 10644 10638 10632 10627 10620 10614 10607 10599 10593 10586
10764 10764 10765 10766 10767 10768 10770 10771 10772 10773 10774 10775 10776 10777 10778 10779 10780 10781 10782 10782 10782 10782 10782 10783 10784 10783 10782 10782 10781 10780 10780 10779 10779 10779 10779 10779 10779 10778 10778 10777 10775 10774 10772 10771 10769 10767 10765 10763 10761 10760 10758 10756 10753 10750 10746 10743 10740 10736 10733 10729 10725 10722 10718 10714 10710 10705 10700 10695 10690 10684 10678 10675 10671 10666 10660 10656 10651 10645 10640 10634 10629 10622 10615 10608 10601 10594 10587 10580
10767 10768 10769 10770 10771 10771 10773 10774 10775 10776 10776 10777 10778 10779 10780 10781 10781 10783 10784 10784 10783 10784 10784 10784 10785 10785 10784 10782 10781 10781 10780 10779 10779 10779 10779 10779 10778 10778 10777 10775 10774 10772 10771 10769 10767 10765 10763 10762 10760 10758 10756 10753 10750 10746 10743 10740 10737 10734 10730 10727 10723 10719 10715 10711 10707 10702 10697 10692 10686 10681 10676 10670 10667 10664 10659 10653 10647 10641 10634 10629 10623 10617 10609 10602 10595 10588 10582 10575
10771 10772 10772 10773 10774 10775 10776 10777 10778 10779 10779 10780 10781 10782 10782 10783 10784 10784 10785 10786 10785 10785 10785 10785 10785 10785 10785 10783 10782 10781 10781 10780 10779 10779 10779 10778 10777 10776 10775 10773 10772 10771 10769 10767 10765 10764 10762 10760 10758 10756 10754 10750 10747 10744 10741 10738 10735 10732 10728 10724 10720 10716 10712 10708 10704 10699 10694 10688 10682 10678 10674 10670 10664 10659 10655 10650 10644 10638 10630 10623 10617 10611 10604 10597 10590 10583 10577 10570
10774 10775 10775 10776 10777 10778 10779 10780 10781 10782 10782 10783 10784 10784 10785 10785 10786 10787 10787 10787 10787 10787 10786 10787 10786 10786 10785 10783 10782 10781 10781 10780 10779 10779 10778 10777 10776 10775 10774 10772 10771 10769 10767 10766 10764 10762 10760 10758 10756 10754 10752 10748 10745 10742 10739 10736 10732 10729 10725 10722 10718 10713 10709 10704 10700 10697 10692 10687 10680 10673 10669 10666 10661 10656 10651 10645 10639 10634 10627 10618 10611 10604 10598 10592 10586 10579 10573 10567
10776 10777 10778 10779 10780 10781 10781 10782 10783 10784 10785 10785 10786 10786 10787 10787 10788 10789 10789 10789 10789 10789 10788 10788 10787 10786 10785 10783 10782 10781 10780 10780 10779 10778 10777 10776 10775 10774 10773 10771 10770 10768 10766 10764 10762 10760 10758 10756 10754 10752 10749 10746 10743 10740 10737 10734 10730 10727 10723 10719 10715 10710 10705 10700 10694 10691 10688 10685 10680 10672 10664 10659 10655 10650 10644 10639 10632 10627 10621 10613 10606 10599 10593 10587 10582 10575 10569 10563
10778 10779 10780 10781 10782 10783 10783 10784 10785 10786 10787 10787 10788 10788 10788 10789 10790 10790 10790 10790 10790 10790 10789 10788 10787 10786 10784 10783 10782 10781 10780 10779 10778 10777 10776 10775 10774 10773 10771 10770 10768 10766 10764 10762 10760 10758 10757 10755 10753 10750 10747 10744 10741 10738 10735 10732 10728 10724 10721 10717 10713 10708 10703 10698 10692 10685 10681 10679 10677 10671 10662 10655 10650 10645 10639 10633 10626 10620 10614 10608 10602 10595 10589 10584 10578 10573 10566 10559
10780 10781 10782 10783 10784 10784 10785 10786 10786 10787 10788 10788 10789 10789 10790 10790 10791 10791 10791 10791 10790 10789 10788 10787 10786 10785 10784 10782 10781 10781 10780 10779 10778 10776 10775 10774 10773 10771 10770 10768 10767 10765 10763 10761 10759 10757 10755 10752 10750 10748 10745 10742 10738 10735 10732 10728 10725 10721 10717 10713 10710 10706 10702 10698 10693 10685 10677 10672 10670 10667 10660 10652 10647 10641 10635 10629 10622 10615 10611 10605 10599 10592 10586 10581 10576 10569 10563 10555
10782 10783 10783 10784 10785 10785 10786 10787 10787 10788 10788 10789 10789 10790 10790 10790 10790 10790 10790 10790 10789 10788 10787 10786 10785 10784 10782 10781 10780 10780 10779 10778 10776 10775 10774 10772 10771 10770 10768 10767 10765 10763 10761 10759 10757 10755 10752 10750 10748 10745 10742 10739 10736 10732 10729 10725 10722 10718 10714 10711 10707 10703 10699 10694 10690 10684 10677 10669 10665 10662 10657 10649 10642 10638 10632 10626 10620 10613 10609 10603 10596 10590 10584 10578 10572 10565 10558 10552
10783 10783 10784 10785 10786 10786 10787 10787 10788 10788 10788 10789 10789 10789 10789 10789 10789 10789 10789 10788 10787 10787 10786 10784 10783 10782 10781 10780 10779 10778 10777 10776 10775 10774 10772 10771 10769 10767 10766 10764 10762 10761 10759 10757 10754 10752 10750 10747 10745 10742 10739 10736 10733 10730 10726 10722 10719 10715 10712 10708 10703 10699 10695 10690 10685 10680 10675 10668 10662 10660 10657 10649 10640 10635 10629 10624 10619 10611 10605 10600 10593 10587 10580 10573 10567 10560 10553 10547
10783 10784 10785 10785 10786 10787 10787 10787 10788 10788 10788 10788 10788 10788 10788 10788 10788 10788 10788 10787 10786 10785 10784 10783 10782 10781 10780 10779 10778 10777 10775 10774 10773 10772 10770 10768 10767 10765 10763 10761 10760 10758 10756 10754 10752 10749 10747 10745 10742 10739 10736 10733 10730 10727 10723 10720 10716 10712 10708 10705 10700 10696 10691 10687 10682 10677 10672 10667 10658 10653 10655 10653 10643 10636 10629 10623 10617 10609 10600 10595 10589 10582 10575 10568 10561 10556 10549 10543
10783 10784 10785 10785 10786 10786 10787 10787 10787 10788 10788 10788 10788 10788 10788 10787 10787 10787 10786 10785 10785 10784 10783 10782 10781 10780 10778 10777 10776 10775 10774 10772 10771 10770 10768 10766 10765 10763 10761 10759 10757 10756 10753 10751 10749 10746 10744 10741 10738 10735 10732 10729 10726 10723 10720 10716 10713 10709 10705 10701 10697 10693 10687 10682 10678 10674 10670 10667 10659 10646 10644 10648 10643 10634 10628 10620 10613 10605 10595 10589 10584 10577 10570 10563 10557 10551 10545 10539
10782 10783 10784 10785 10785 10786 10786 10787 10787 10787 10787 10787 10787 10787 10787 10786 10786 10785 10785 10784 10783 10782 10781 10780 10779 10778 10777 10775 10774 10773 10772 10770 10769 10768 10766 10764 10762 10760 10758 10756 10755 10753 10750 10748 10745 10743 10740 10737 10734 10731 10728 10724 10721 10719 10716 10713 10709 10705 10701 10696 10692 10689 10684 10677 10672 10669 10665 10662 10661 10648 10635 10637 10637 10629 10623 10616 10609 10603 10593 10585 10579 10572 10566 10560 10553 10547 10542 10535
10781 10782 10783 10784 10785 10785 10786 10786 10786 10786 10786 10786 10786 10786 10785 10785 10784 10784 10783 10782 10781 10780 10779 10778 10777 10776 10775 10774 10772 10771 10770 10768 10767 10765 10763 10762 10760 10758 10756 10754 10751 10749 10747 10744 10741 10739 10736 10734 10731 10727 10724 10720 10717 10714 10711 10708 10705 10701 10696 10691 10687 10683 10679 10673 10666 10662 10657 10653 10654 10649 10633 10627 10628 10622 10616 10610 10603 10599 10591 10581 10575 10568 10562 10556 10549 10543 10537 10530
10781 10782 10782 10783 10784 10784 10785 10785 10785 10785 10785 10785 10785 10784 10784 10783 10783 10782 10781 10780 10779 10778 10777 10776 10775 10774 10773 10771 10770 10769 10767 10766 10764 10762 10760 10759 10757 10755 10753 10750 10748 10745 10743 10740 10737 10735 10732 10729 10726 10723 10719 10716 10713 10709 10706 10703 10701 10696 10692 10687 10682 10677 10673 10669 10662 10654 10649 10644 10644 10643 10631 10620 10619 10613 10607 10602 10596 10593 10587 10578 10570 10564 10557 10551 10544 10537 10531 10524
10780 10781 10781 10782 10783 10783 10783 10784 10784 10784 10784 10783 10783 10783 10782 10782 10781 10780 10779 10778 10777 10776 10775 10774 10773 10772 10770 10769 10767 10766 10764 10763 10761 10759 10757 10756 10754 10751 10749 10747 10744 10742 10739 10736 10733 10731 10728 10725 10721 10719 10715 10711 10708 10705 10700 10697 10695 10691 10687 10681 10676 10671 10667 10664 10659 10651 10644 10637 10634 10636 10627 10616 10612 10608 10602 10598 10591 10586 10582 10574 10566 10559 10552 10545 10538 10531 10525 10518
10779 10780 10780 10781 10781 10782 10782 10782 10782 10782 10782 10782 10781 10781 10780 10779 10779 10778 10777 10776 10775 10774 10773 10771 10770 10769 10767 10766 10764 10763 10761 10759 10758 10756 10754 10752 10750 10748 10745 10743 10740 10738 10735 10733 10730 10727 10724 10721 10717 10714 10711 10707 10703 10701 10696 10691 10688 10686 10682 10677 10671 10666 10660 10656 10653 10647 10641 10632 10627 10628 10625 10614 10608 10604 10599 10593 10585 10579 10576 10570 10562 10555 10547 10540 10532 10525 10519 10512
10778 10779 10779 10780 10780 10780 10780 10780 10780 10780 10780 10779 10779 10778 10777 10777 10776 10775 10774 10773 10772 10771 10769 10768 10767 10766 10764 10763 10761 10759 10758 10756 10754 10752 10750 10748 10745 10743 10741 10739 10736 10733 10731 10728 10725 10723 10720 10717 10714 10710 10706 10703 10698 10695 10692 10686 10682 10679 10677 10673 10667 10661 10656 10651 10647 10642 10638 10629 10621 10621 10622 10614 10605 10600 10593 10588 10581 10573 10569 10564 10557 10550 10542 10534 10527 10520 10514 10508
10777 10778 10778 10778 10778 10779 10778 10778 10778 10778 10777 10777 10776 10775 10775 10774 10773 10772 10771 10770 10768 10767 10766 10765 10763 10762 10761 10759 10757 10755 10754 10752 10750 10748 10746 10744 10741 10739 10737 10734 10732 10729 10726 10724 10721 10718 10715 10713 10711 10707 10704 10701 10695 10691 10689 10683 10678 10676 10673 10669 10664 10658 10652 10647 10642 10638 10634 10628 10617 10614 10615 10610 10601 10594 10587 10582 10576 10568 10562 10556 10550 10545 10538 10530 10523 10516 10509 10504
10775 10775 10776 10776 10776 10776 10776 10776 10776 10775 10774 10774 10773 10772 10772 10771 10770 10769 10767 10766 10765 10764 10763 10761 10760 10758 10757 10755 10753 10751 10749 10748 10746 10743 10741 10739 10736 10734 10732 10729 10727 10724 10721 10719 10716 10713 10709 10706 10705 10702 10699 10698 10695 10691 10688 10683 10677 10672 10669 10666 10661 10655 10648 10642 10637 10633 10629 10625 10615 10607 10606 10606 10600 10591 10584 10578 10571 10564 10560 10554 10545 10539 10533 10526 10519 10512 10506 10500
10773 10773 10773 10773 10773 10773 10773 10772 10772 10772 10771 10770 10770 10769 10768 10767 10766 10765 10764 10763 10761 10760 10759 10757 10756 10754 10752 10751 10749 10747 10745 10743 10741 10738 10736 10734 10731 10728 10726 10724 10721 10719 10716 10713 10711 10708 10704 10700 10698 10696 10690 10688 10688 10685 10682 10679 10672 10666 10663 10660 10655 10650 10643 10636 10631 10626 10622 10619 10613 10603 10597 10597 10596 10590 10583 10578 10572 10564 10558 10553 10545 10536 10529 10522 10516 10509 10502 10496
10770 10770 10770 10770 10770 10770 10769 10769 10769 10768 10767 10767 10766 10765 10764 10763 10762 10761 10760 10759 10757 10756 10754 10753 10751 10749 10747 10746 10744 10742 10740 10738 10736 10733 10731 10729 10726 10723 10721 10718 10716 10713 10711 10708 10705 10703 10700 10695 10692 10690 10684 10679 10679 10678 10674 10671 10666 10660 10656 10654 10648 10643 10638 10630 10623 10619 10615 10611 10607 10600 10592 10587 10587 10584 10577 10572 10569 10563 10556 10552 10544 10535 10528 10520 10513 10506 10499 10492
10767 10767 10767 10767 10767 10766 10766 10765 10765 10764 10764 10763 10762 10761 10760 10759 10758 10757 10755 10754 10753 10751 10750 10748 10746 10744 10743 10741 10739 10737 10735 10733 10730 10728 10726 10723 10721 10718 10715 10713 10710 10708 10705 10703 10699 10697 10696 10692 10687 10686 10681 10671 10669 10671 10668 10664 10660 10653 10649 10648 10644 10637 10632 10625 10617 10611 10608 10604 10599 10595 10589 10581 10577 10577 10570 10564 10561 10556 10551 10547 10540 10531 10524 10517 10509 10502 10495 10488
10764 10764 10763 10763 10764 10763 10762 10762 10761 10761 10760 10759 10758 10757 10756 10755 10754 10752 10751 10750 10748 10746 10745 10743 10741 10740 10738 10736 10734 10732 10730 10728 10725 10723 10721 10718 10716 10713 10710 10707 10704 10702 10699 10696 10693 10690 10689 10687 10683 10682 10680 10668 10660 10662 10661 10658 10654 10648 10643 10642 10639 10633 10627 10621 10612 10604 10600 10598 10593 10589 10586 10578 10570 10568 10563 10557 10553 10549 10543 10539 10532 10524 10518 10512 10504 10497 10491 10484
10759 10759 10759 10759 10759 10759 10758 10758 10757 10757 10755 10754 10754 10752 10751 10750 10749 10748 10746 10745 10743 10741 10739 10738 10736 10734 10732 10730 10728 10726 10724 10722 10720 10717 10715 10712 10709 10707 10705 10702 10698 10695 10693 10689 10687 10683 10681 10681 10677 10675 10677 10669 10657 10654 10654 10651 10648 10643 10638 10637 10634 10630 10625 10618 10609 10599 10593 10592 10589 10583 10579 10575 10568 10563 10558 10550 10545 10542 10537 10532 10527 10518 10510 10506 10499 10492 10486 10480
10755 10755 10755 10755 10754 10754 10754 10753 10752 10752 10750 10750 10749 10747 10746 10745 10743 10742 10741 10739 10738 10736 10734 10732 10730 10728 10727 10725 10723 10721 10718 10716 10714 10712 10709 10707 10703 10700 10698 10696 10691 10689 10686 10682 10680 10676 10673 10673 10670 10667 10670 10667 10657 10652 10650 10648 10643 10636 10633 10632 10629 10625 10622 10616 10606 10596 10588 10587 10586 10579 10573 10569 10564 10560 10556 10547 10538 10533 10529 10526 10522 10513 10504 10499 10494 10488 10482 10476
10752 10752 10751 10751 10750 10749 10749 10748 10747 10747 10745 10744 10743 10742 10741 10739 10737 10737 10735 10733 10732 10730 10728 10726 10724 10722 10720 10718 10717 10715 10712 10710 10708 10706 10703 10701 10698 10694 10692 10689 10685 10682 10680 10676 10673 10670 10666 10665 10662 10659 10661 10661 10654 10648 10647 10646 10640 10632 10628 10627 10624 10619 10617 10612 10604 10593 10584 10582 10581 10574 10567 10563 10558 10553 10551 10545 10536 10527 10521 10518 10516 10510 10502 10495 10489 10484 10479 10473